Weather History for KSRB - June, 2014

Change the Weather History Date:

Friday, June 6, 2014

  Actual Average (KCSV) Record (KCSV)
Temperature  
Mean Temperature 75 °F 69 °F  
Max Temperature 84 °F 79 °F 90 °F (1977)
Min Temperature 66 °F 59 °F 44 °F (1954)
Degree Days  
Heating Degree Days 0    
Month to date heating degree days  
Since 1 June heating degree days  
Since 1 July heating degree days  
Cooling Degree Days 10    
Month to date cooling degree days  
Year to date cooling degree days  
Since 1 June cooling degree days  
Growing Degree Days 25 (Base 50)    
Moisture  
Dew Point 68 °F    
Average Humidity 86    
Maximum Humidity 100    
Minimum Humidity 58    
Precipitation  
Precipitation 0.00 in 0.16 in 1.76 in (1973)
Month to date precipitation 0.96  
Year to date precipitation 25.34  
Sea Level Pressure  
Sea Level Pressure 29.96 in    
Wind  
Wind Speed 0 mph (SW)    
Max Wind Speed 6 mph    
Max Gust Speed -    
Visibility 8 miles    
Events      
T = Trace of Precipitation, MM = Missing Value Source: NWS Daily Summary

Daily Weather History Graph

Daily Weather History Graph

Search for Another Location

Airport or City:

Trip Planner

Search our weather history database for the weather conditions in past years. The results will help you decide how hot, cold, wet, or windy it might be!

Date:

Astronomy

Jun. 06, 2014 Rise Set
Actual Time 5:25 AM CDT 7:56 PM CDT
Civil Twilight 4:55 AM CDT 8:26 PM CDT
Nautical Twilight 4:18 AM CDT 9:03 PM CDT
Astronomical Twilight 3:37 AM CDT 9:44 PM CDT
Moon 1:26 PM CDT (6/6) 1:04 AM CDT (6/6)
Length of Visible Light 15h 31m
Length of Day
14h 31m
First Quarter, 58% of the Moon is Illuminated
Jun 6
First Quarter
Jun 12
Full
Jun 19
Last Quarter
Jun 27
New
Jul 5
First Quarter

Hourly Weather History & Observations

Time (CDT) Temp. Heat Index Dew Point Humidity Pressure Visibility Wind Dir Wind Speed Gust Speed Precip Events Conditions
12:15 AM 69.8 °F - 69.8 °F 100% 29.94 in 4.0 mi Calm Calm - N/A   Overcast
12:35 AM 69.8 °F - 69.8 °F 100% 29.94 in 3.0 mi Calm Calm - N/A   Unknown
12:55 AM 69.8 °F - 69.8 °F 100% 29.94 in 2.5 mi Calm Calm - N/A   Overcast
1:15 AM 69.8 °F - 69.8 °F 100% 29.94 in 1.0 mi Calm Calm - N/A   Unknown
1:35 AM 69.8 °F - 68.0 °F 94% 29.94 in 0.5 mi Calm Calm - N/A   Overcast
1:55 AM 69.8 °F - 68.0 °F 94% 29.94 in 0.5 mi Calm Calm - N/A   Overcast
2:15 AM 68.0 °F - 68.0 °F 100% 29.93 in 0.2 mi Calm Calm - N/A   Overcast
2:35 AM 68.0 °F - 68.0 °F 100% 29.93 in 0.2 mi Calm Calm - N/A   Unknown
2:55 AM 68.0 °F - 68.0 °F 100% 29.93 in 0.8 mi Calm Calm - N/A   Overcast
3:15 AM 68.0 °F - 68.0 °F 100% 29.93 in 1.0 mi Calm Calm - N/A   Overcast
3:35 AM 68.0 °F - 66.2 °F 94% 29.93 in 0.5 mi Calm Calm - N/A   Unknown
3:55 AM 68.0 °F - 66.2 °F 94% 29.93 in 2.5 mi SSW 4.6 mph - N/A   Overcast
4:15 AM 68.0 °F - 66.2 °F 94% 29.94 in 5.0 mi Calm Calm - N/A   Overcast
4:35 AM 66.2 °F - 66.2 °F 100% 29.94 in 6.0 mi Calm Calm - N/A   Overcast
4:55 AM 66.2 °F - 66.2 °F 100% 29.95 in 8.0 mi Calm Calm - N/A   Unknown
5:15 AM 66.2 °F - 66.2 °F 100% 29.95 in 10.0 mi Calm Calm - N/A   Overcast
5:35 AM 66.2 °F - 66.2 °F 100% 29.96 in 10.0 mi SSW 3.5 mph - N/A   Overcast
5:55 AM 66.2 °F - 66.2 °F 100% 29.96 in 9.0 mi SW 5.8 mph - N/A   Overcast
6:15 AM 66.2 °F - 66.2 °F 100% 29.96 in 7.0 mi Calm Calm - N/A   Unknown
6:35 AM 66.2 °F - 66.2 °F 100% 29.96 in 4.0 mi Calm Calm - N/A   Overcast
6:55 AM 66.2 °F - 66.2 °F 100% 29.97 in 1.2 mi Calm Calm - N/A   Overcast
7:15 AM 66.2 °F - 66.2 °F 100% 29.97 in 8.0 mi Calm Calm - N/A   Unknown
7:35 AM 68.0 °F - 66.2 °F 94% 29.98 in 10.0 mi SW 3.5 mph - N/A   Overcast
7:55 AM 66.2 °F - 66.2 °F 100% 29.99 in 4.0 mi Calm Calm - N/A   Overcast
8:15 AM 66.2 °F - 66.2 °F 100% 29.98 in 4.0 mi Calm Calm - N/A   Overcast
8:35 AM 68.0 °F - 66.2 °F 94% 29.97 in 8.0 mi Calm Calm - N/A   Overcast
8:55 AM 68.0 °F - 64.4 °F 88% 29.98 in 9.0 mi Calm Calm - N/A   Overcast
9:15 AM 69.8 °F - 66.2 °F 88% 29.98 in 10.0 mi Calm Calm - N/A   Overcast
9:35 AM 71.6 °F - 66.2 °F 83% 29.99 in 10.0 mi Calm Calm - N/A   Overcast
9:55 AM 71.6 °F - 66.2 °F 83% 30.00 in 10.0 mi Calm Calm - N/A   Overcast
10:15 AM 71.6 °F - 68.0 °F 88% 29.99 in 10.0 mi Calm Calm - N/A   Overcast
10:35 AM 71.6 °F - 68.0 °F 88% 30.00 in 10.0 mi Calm Calm - N/A   Overcast
10:55 AM 71.6 °F - 66.2 °F 83% 29.99 in 10.0 mi Calm Calm - N/A   Overcast
11:15 AM 71.6 °F - 66.2 °F 83% 29.98 in 10.0 mi Calm Calm - N/A   Overcast
11:35 AM 75.2 °F - 69.8 °F 83% 29.97 in 10.0 mi Variable 3.5 mph - N/A   Partly Cloudy
11:55 AM 75.2 °F - 69.8 °F 83% 29.97 in 10.0 mi Calm Calm - N/A   Partly Cloudy
12:15 PM 78.8 °F - 69.8 °F 74% 29.97 in 10.0 mi Calm Calm - N/A   Partly Cloudy
12:35 PM 80.6 °F 83.9 °F 69.8 °F 70% 29.97 in 10.0 mi Calm Calm - N/A   Clear
12:55 PM 80.6 °F 83.9 °F 69.8 °F 70% 29.97 in 10.0 mi Calm Calm - N/A   Scattered Clouds
1:15 PM 80.6 °F 83.9 °F 69.8 °F 70% 29.98 in 10.0 mi Calm Calm - N/A   Mostly Cloudy
1:35 PM 82.4 °F 86.3 °F 69.8 °F 66% 29.97 in 10.0 mi Calm Calm - N/A   Mostly Cloudy
1:55 PM 84.2 °F 88.4 °F 69.8 °F 62% 29.96 in 10.0 mi Calm Calm - N/A   Partly Cloudy
2:15 PM 82.4 °F 86.3 °F 69.8 °F 66% 29.96 in 10.0 mi Calm Calm - N/A   Scattered Clouds
2:35 PM 84.2 °F 88.4 °F 69.8 °F 62% 29.96 in 10.0 mi Calm Calm - N/A   Partly Cloudy
2:55 PM 84.2 °F 88.4 °F 69.8 °F 62% 29.95 in 10.0 mi Calm Calm - N/A   Mostly Cloudy
3:15 PM 84.2 °F 88.4 °F 69.8 °F 62% 29.94 in 10.0 mi Calm Calm - N/A   Overcast
3:35 PM 80.6 °F 83.9 °F 69.8 °F 70% 29.93 in 10.0 mi Calm Calm - N/A   Mostly Cloudy
3:55 PM 82.4 °F 86.3 °F 69.8 °F 66% 29.92 in 10.0 mi Calm Calm - N/A   Partly Cloudy
4:15 PM 82.4 °F 86.3 °F 69.8 °F 66% 29.92 in 10.0 mi Calm Calm - N/A   Scattered Clouds
4:35 PM 82.4 °F 86.3 °F 69.8 °F 66% 29.93 in 10.0 mi Calm Calm - N/A   Mostly Cloudy
4:55 PM 80.6 °F 83.2 °F 68.0 °F 65% 29.95 in 10.0 mi Calm Calm - N/A   Partly Cloudy
5:15 PM 82.4 °F 86.3 °F 69.8 °F 66% 29.95 in 10.0 mi Calm Calm - N/A   Clear
5:35 PM 84.2 °F 87.3 °F 68.0 °F 58% 29.96 in 10.0 mi Calm Calm - N/A   Clear
5:55 PM 82.4 °F 86.3 °F 69.8 °F 66% 29.97 in 10.0 mi Calm Calm - N/A   Clear
6:15 PM 80.6 °F 83.9 °F 69.8 °F 70% 29.96 in 10.0 mi Calm Calm - N/A   Clear
6:35 PM 80.6 °F 83.9 °F 69.8 °F 70% 29.96 in 10.0 mi Calm Calm - N/A   Clear
6:55 PM 78.8 °F - 69.8 °F 74% 29.96 in 10.0 mi Calm Calm - N/A   Clear
7:15 PM 77.0 °F - 71.6 °F 83% 29.96 in 10.0 mi Calm Calm - N/A   Clear
7:35 PM 75.2 °F - 69.8 °F 83% 29.96 in 10.0 mi Calm Calm - N/A   Clear
7:55 PM 73.4 °F - 69.8 °F 88% 29.97 in 10.0 mi Calm Calm - N/A   Clear
8:15 PM 71.6 °F - 69.8 °F 94% 29.96 in 10.0 mi Calm Calm - N/A   Clear
8:35 PM 71.6 °F - 69.8 °F 94% 29.97 in 10.0 mi Calm Calm - N/A   Clear
8:55 PM 71.6 °F - 68.0 °F 88% 29.97 in 10.0 mi Calm Calm - N/A   Clear
9:15 PM 69.8 °F - 68.0 °F 94% 29.96 in 10.0 mi Calm Calm - N/A   Clear
9:35 PM 69.8 °F - 68.0 °F 94% 29.96 in 10.0 mi Calm Calm - N/A   Clear
9:55 PM 69.8 °F - 68.0 °F 94% 29.95 in 10.0 mi Calm Calm - N/A   Clear
10:15 PM 69.8 °F - 68.0 °F 94% 29.94 in 10.0 mi Calm Calm - N/A   Clear
10:35 PM 69.8 °F - 68.0 °F 94% 29.94 in 10.0 mi Calm Calm - N/A   Clear
11:15 PM 68.0 °F - 66.2 °F 94% 29.95 in 10.0 mi Calm Calm - N/A   Clear
11:35 PM 68.0 °F - 66.2 °F 94% 29.95 in 10.0 mi Calm Calm - N/A   Clear
11:55 PM 66.2 °F - 66.2 °F 100% 29.96 in 8.0 mi Calm Calm - N/A   Clear